Weather observations for the past three days for
Dickson Municipal Airport
Metric (Imperial)
Date Time (cdt) Wind (kph) Vis. (km) Weather Sky Cond. Temperature (ºC) Relative Humidity Wind Chill (°C) Heat Index (°C) Pressure Precipitation (cm)
Air Dwpt 6 hour altimeter (cm) sea level (mb) 1 hr 3 hr 6 hr
Max. Min.
09 17:15 Vrbl 6 16.09 NULL NULL 25 9 36% 26 75.82 0.0
09 16:55 W 13 16.09 NULL NULL 25 9 36% 26 75.82 0.0
09 16:35 SW 11 16.09 NULL NULL 26 9 34% 26 75.79 0.0
09 16:15 NE 9 16.09 NULL NULL 25 10 39% 26 75.79 0.0
09 15:55 Vrbl 9 16.09 NULL NULL 25 9 36% 26 75.79 0.0
09 15:35 Vrbl 7 16.09 NULL NULL 25 10 39% 26 75.79 0.0
09 15:15 Vrbl 9 G 19 16.09 NULL NULL 25 11 42% 26 75.79 0.0
09 14:55 SW 15 16.09 NULL NULL 25 11 42% 26 75.82 0.0
09 14:35 Calm 16.09 NULL NULL 24 10 41% 25 75.82 0.0
09 14:15 SW 7 G 20 16.09 NULL NULL 24 11 44% 25 75.84 0.0
09 13:55 Vrbl 9 G 19 16.09 NULL NULL 25 12 44% 26 75.84 0.0
09 13:35 Calm 16.09 NULL NULL 23 12 50% 75.84 0.0
09 13:15 NE 7 16.09 NULL NULL 24 12 47% 25 75.84 0.0
09 12:55 Calm 16.09 NULL NULL 23 12 50% 75.82 0.0
09 12:35 Vrbl 7 16.09 NULL NULL 23 12 50% 75.84 0.0
09 12:15 N 7 16.09 NULL NULL 22 12 53% 75.84 0.0
09 11:55 Vrbl 7 16.09 NULL NULL 21 12 57% 75.84 0.0
09 11:35 Vrbl 9 16.09 NULL NULL 22 13 57% 75.84 0.0
09 11:15 NE 7 16.09 NULL NULL 20 13 64% 75.84 0.0
09 10:55 Calm 16.09 NULL NULL 21 13 60% 75.84 0.0
09 10:35 Vrbl 9 16.09 NULL NULL 20 13 64% 75.82 0.0
09 10:15 Vrbl 6 16.09 NULL NULL 20 13 64% 75.82 0.0
09 09:55 Vrbl 7 G 19 16.09 NULL NULL 19 13 68% 75.82 0.0
09 09:35 W 13 16.09 NULL NULL 18 14 78% 75.79 0.0
09 09:15 W 17 16.09 NULL NULL 17 13 77% 75.79 0.0
09 08:55 W 22 16.09 NULL NULL 17 14 83% 75.79 0.0
09 08:35 W 19 G 28 16.09 NULL NULL 16 13 83% 75.79 0.0
09 08:15 SW 11 G 20 16.09 NULL NULL 15 13 88% 75.79 0.0
09 07:55 SW 13 16.09 NULL NULL 14 13 94% 75.79 0.0
09 07:35 SW 11 16.09 NULL NULL 13 12 94% 75.79 0.0
09 07:15 SW 19 16.09 NULL NULL 13 12 94% 75.79 0.0
09 06:55 SW 9 G 20 16.09 NULL NULL 12 12 100% 75.74 0.0
09 06:35 SW 20 16.09 NULL NULL 12 12 100% 75.69 0.0
09 06:15 SW 19 16.09 NULL NULL 12 11 94% 75.69 0.0
09 05:55 SW 17 16.09 NULL NULL 12 11 94% 75.69 0.0
09 05:35 SW 13 16.09 NULL NULL 12 11 94% 75.69 0.0
09 05:15 S 13 16.09 NULL NULL 12 11 94% 75.69 0.0
09 04:55 S 11 16.09 NULL NULL 12 11 94% 75.72 0.0
09 04:35 Calm 16.09 NULL NULL 12 11 94% 75.72 0.0
09 04:15 SW 7 16.09 NULL NULL 12 10 88% 75.72 0.0
09 03:55 SW 11 16.09 NULL NULL 13 11 88% 75.74 0.0
09 03:35 SW 13 16.09 NULL NULL 13 11 88% 75.72 0.0
09 03:15 SW 15 16.09 NULL NULL 13 11 88% 75.72 0.0
09 02:55 SW 11 16.09 NULL NULL 13 11 88% 75.72 0.0
09 02:35 SW 11 16.09 NULL NULL 13 11 88% 75.72 0.0
09 02:15 SW 13 16.09 NULL NULL 13 11 88% 75.69 0.0
09 01:55 SW 17 16.09 NULL NULL 12 10 88% 75.74 0.0
09 01:35 S 11 16.09 NULL NULL 12 10 88% 75.77 0.0
09 01:15 SW 11 16.09 NULL NULL 13 10 82% 75.79 0.0
09 00:55 SW 7 16.09 NULL NULL 13 10 82% 75.82 0.0
09 00:35 S 11 16.09 NULL NULL 13 10 82% 75.79 0.0
09 00:15 SW 9 16.09 NULL NULL 13 10 82% 75.82 0.0
08 23:55 SW 11 16.09 NULL NULL 14 9 72% 75.79 0.0
08 23:35 SW 13 16.09 NULL NULL 14 9 72% 75.79 0.0
08 23:15 SW 15 16.09 NULL NULL 15 9 68% 75.82 0.0
08 22:55 SW 13 G 24 16.09 NULL NULL 15 9 68% 75.82 0.0
08 22:35 S 17 G 26 16.09 NULL NULL 16 8 59% 75.82 0.0
08 22:15 S 17 16.09 NULL NULL 16 8 59% 75.82 0.0
08 21:55 S 13 16.09 NULL NULL 16 8 59% 75.82 0.0
08 21:35 S 13 16.09 NULL NULL 16 8 59% 75.82 0.0
08 21:15 S 15 16.09 NULL NULL 17 7 52% 75.82 0.0
08 20:55 S 9 16.09 NULL NULL 17 7 52% 75.82 0.0
08 20:35 S 11 16.09 NULL NULL 17 7 52% 75.82 0.0
08 20:15 S 11 16.09 NULL NULL 18 7 49% 75.82 0.0
08 19:55 S 11 16.09 NULL NULL 19 7 46% 75.79 0.0
08 19:35 S 7 16.09 NULL NULL 19 7 46% 75.79 0.0
08 19:15 S 7 16.09 NULL NULL 20 6 40% 75.82 0.0
08 18:55 S 9 16.09 NULL NULL 21 6 38% 75.82 0.0
08 18:35 S 13 16.09 NULL NULL 22 6 36% 75.82 0.0
08 18:15 S 11 16.09 NULL NULL 22 6 36% 75.84 0.0
08 17:55 S 11 G 22 16.09 NULL NULL 23 5 31% 75.84 0.0
08 17:35 SW 15 16.09 NULL NULL 23 5 31% 75.84 0.0
08 17:15 S 17 16.09 NULL NULL 23 5 31% 75.87 0.0
08 16:55 S 13 G 24 16.09 NULL NULL 23 5 31% 75.87 0.0
08 16:35 Vrbl 11 G 20 16.09 NULL NULL 22 4 31% 75.87 0.0
08 16:15 Vrbl 11 16.09 NULL NULL 23 5 31% 75.87 0.0
08 15:55 SW 17 16.09 NULL NULL 23 5 31% 75.9 0.0
08 15:35 SW 13 G 22 16.09 NULL NULL 22 4 31% 75.92 0.0
08 15:15 SW 19 16.09 NULL NULL 22 5 33% 75.92 0.0
08 14:55 S 13 G 24 16.09 NULL NULL 22 4 31% 75.97 0.0
08 14:35 SE 9 G 20 16.09 NULL NULL 22 4 31% 75.97 0.0
08 14:15 SW 17 16.09 NULL NULL 22 4 31% 76 0.0
08 13:55 S 17 G 28 16.09 NULL NULL 22 4 31% 76.02 0.0
08 13:35 Calm 16.09 NULL NULL 21 3 31% 76.05 0.0
08 13:15 SW 15 G 26 16.09 NULL NULL 20 3 33% 76.07 0.0
08 12:55 S 15 16.09 NULL NULL 21 3 31% 76.12 0.0
08 12:35 SW 17 16.09 NULL NULL 21 3 31% 76.12 0.0
08 12:15 S 13 16.09 NULL NULL 20 3 33% 76.15 0.0
08 11:55 SW 15 16.09 NULL NULL 20 3 33% 76.17 0.0
08 11:35 SW 15 G 24 16.09 NULL NULL 20 3 33% 76.2 0.0
08 11:15 S 17 16.09 NULL NULL 19 4 37% 76.2 0.0
08 10:55 S 15 16.09 NULL NULL 19 4 37% 76.23 0.0
08 10:35 S 15 16.09 NULL NULL 18 4 40% 76.25 0.0
08 10:15 S 19 16.09 NULL NULL 19 6 43% 76.25 0.0
08 09:55 S 17 16.09 NULL NULL 18 6 46% 76.28 0.0
08 09:35 S 13 16.09 NULL NULL 17 5 45% 76.28 0.0
08 09:15 S 13 16.09 NULL NULL 17 5 45% 76.28 0.0
08 08:55 S 11 16.09 NULL NULL 16 5 48% 76.3 0.0
08 08:35 S 7 G 20 16.09 NULL NULL 15 5 51% 76.33 0.0
08 08:15 S 7 16.09 NULL NULL 14 5 55% 76.3 0.0
08 07:55 S 9 16.09 NULL NULL 13 4 55% 76.3 0.0
08 07:35 S 7 16.09 NULL NULL 12 4 58% 76.3 0.0
08 07:15 S 9 16.09 NULL NULL 11 4 62% 76.3 0.0
08 06:55 S 7 16.09 NULL NULL 9 4 71% 8 76.28 0.0
08 06:35 S 7 16.09 NULL NULL 7 4 81% 6 76.25 0.0
08 06:15 Calm 16.09 NULL NULL 6 4 87% 76.25 0.0
08 05:55 Calm 16.09 NULL NULL 6 4 87% 76.23 0.0
08 05:35 Calm 16.09 NULL NULL 6 4 87% 76.23 0.0
08 05:15 Calm 16.09 NULL NULL 6 4 87% 76.2 0.0
08 04:55 SE 6 16.09 NULL NULL 6 5 93% 76.2 0.0
08 04:35 Calm 16.09 NULL NULL 6 5 93% 76.2 0.0
08 04:15 Calm 16.09 NULL NULL 6 5 93% 76.17 0.0
08 03:55 Calm 16.09 NULL NULL 6 4 87% 76.17 0.0
08 03:35 Calm 16.09 NULL NULL 7 4 81% 76.17 0.0
08 03:15 Calm 16.09 NULL NULL 7 5 87% 76.2 0.0
08 02:55 Calm 16.09 NULL NULL 7 4 81% 76.2 0.0
08 02:35 Calm 16.09 NULL NULL 7 5 87% 76.23 0.0
08 02:15 Calm 16.09 NULL NULL 7 5 87% 76.23 0.0
08 01:55 Calm 16.09 NULL NULL 8 5 82% 76.23 0.0
08 01:35 Calm 16.09 NULL NULL 7 5 87% 76.23 0.0
08 01:15 Calm 16.09 NULL NULL 7 6 93% 76.23 0.0
08 00:55 Calm 16.09 NULL NULL 8 5 82% 76.25 0.0
08 00:35 Calm 16.09 NULL NULL 8 6 87% 76.25 0.0
08 00:15 Calm 16.09 NULL NULL 8 6 87% 76.23 0.0
07 23:55 Calm 16.09 NULL NULL 8 6 87% 76.23 0.0
07 23:35 Calm 11.27 NULL NULL 8 6 87% 76.23 0.0
07 23:15 Calm 16.09 NULL NULL 9 6 82% 76.25 0.0
07 22:55 Calm 16.09 NULL NULL 9 6 82% 76.28 0.0
07 22:35 Calm 16.09 NULL NULL 9 6 82% 76.28 0.0
07 22:15 Calm 16.09 NULL NULL 10 6 76% 76.25 0.0
07 21:55 Calm 16.09 NULL NULL 10 6 76% 76.23 0.0
07 21:35 Calm 16.09 NULL NULL 10 5 71% 76.23 0.0
07 21:15 Calm 16.09 NULL NULL 11 6 72% 76.23 0.0
07 20:55 Calm 16.09 NULL NULL 11 6 72% 76.2 0.0
07 20:35 Calm 16.09 NULL NULL 11 6 72% 76.2 0.0
07 20:15 Calm 16.09 NULL NULL 12 6 67% 76.17 0.0
07 19:55 Calm 16.09 NULL NULL 13 6 63% 76.15 0.0
07 19:35 NW 7 16.09 NULL NULL 15 4 48% 76.15 0.0
07 19:15 Calm 16.09 NULL NULL 16 3 42% 76.15 0.0
07 18:55 N 9 16.09 NULL NULL 17 3 39% 76.12 0.0
07 18:15 N 13 16.09 NULL NULL 18 2 34% 76.1 0.0
07 17:55 NW 11 16.09 NULL NULL 18 3 37% 76.12 0.0
07 17:35 N 11 16.09 NULL NULL 18 3 37% 76.12 0.0
07 17:15 Calm 16.09 NULL NULL 18 3 37% 76.12 0.0
07 16:55 NW 15 16.09 NULL NULL 18 2 34% 76.12 0.0
07 16:35 NW 19 16.09 NULL NULL 18 4 40% 76.12 0.0
07 16:15 Vrbl 11 16.09 NULL NULL 18 4 40% 76.12 0.0
07 15:55 N 11 G 30 16.09 NULL NULL 18 3 37% 76.12 0.0
07 15:35 NE 9 G 22 16.09 NULL NULL 17 3 39% 76.12 0.0
07 15:15 NE 11 16.09 NULL NULL 17 3 39% 76.15 0.0
07 14:55 Calm 16.09 NULL NULL 18 3 37% 76.12 0.0
07 14:35 Vrbl 7 G 20 16.09 NULL NULL 18 3 37% 76.12 0.0
07 14:15 NW 9 G 20 16.09 NULL NULL 18 4 40% 76.15 0.0
07 13:55 Vrbl 7 G 22 16.09 NULL NULL 17 3 39% 76.15 0.0
07 13:35 N 7 G 22 16.09 NULL NULL 17 4 42% 76.15 0.0
07 13:15 N 13 G 22 16.09 NULL NULL 16 4 45% 76.17 0.0
07 12:55 NE 9 G 24 16.09 NULL NULL 17 4 42% 76.17 0.0
07 12:35 Vrbl 9 G 30 16.09 NULL NULL 16 4 45% 76.2 0.0
07 12:15 NE 15 16.09 NULL NULL 16 5 48% 76.23 0.0
07 11:55 N 19 G 30 16.09 NULL NULL 16 5 48% 76.25 0.0
07 11:35 Vrbl 6 G 30 16.09 NULL NULL 15 5 51% 76.25 0.0
07 11:15 N 13 G 24 16.09 NULL NULL 15 5 51% 76.25 0.0
07 10:55 N 19 16.09 NULL NULL 15 5 51% 76.25 0.0
07 10:35 N 15 16.09 NULL NULL 15 6 55% 76.28 0.0
07 10:15 NE 13 G 22 16.09 NULL NULL 14 6 59% 76.25 0.0
07 09:55 N 19 16.09 NULL NULL 14 6 59% 76.25 0.0
07 09:35 NE 15 16.09 NULL NULL 13 6 63% 76.25 0.0
07 09:15 NE 13 16.09 NULL NULL 13 6 63% 76.25 0.0
07 08:35 NE 9 G 20 16.09 NULL NULL 12 7 72% 76.23 0.0
07 08:15 NE 11 G 22 16.09 NULL NULL 11 7 77% 76.23 0.0
07 07:55 NE 15 16.09 NULL NULL 11 7 77% 76.2 0.0
07 07:35 NE 15 16.09 NULL NULL 10 7 82% 8 76.2 0.0
07 07:15 N 13 16.09 NULL NULL 10 7 82% 8 76.17 0.0
07 06:55 N 9 16.09 NULL NULL 9 7 87% 8 76.17 0.0
07 06:35 N 11 16.09 NULL NULL 8 7 93% 6 76.17 0.0
07 06:15 N 11 16.09 NULL NULL 8 7 93% 6 76.15 0.0
07 05:55 N 11 16.09 NULL NULL 8 7 93% 6 76.12 0.0
07 05:35 N 11 16.09 NULL NULL 8 7 93% 6 76.1 0.0
07 05:15 N 9 16.09 NULL NULL 8 7 93% 7 76.1 0.0
07 04:55 N 11 16.09 NULL NULL 9 7 87% 8 76.1 0.0
07 04:35 N 11 16.09 NULL NULL 9 7 87% 8 76.1 0.0
07 04:15 N 11 16.09 NULL NULL 9 8 94% 8 76.1 0.0
07 03:55 N 9 16.09 NULL NULL 9 8 94% 8 76.1 0.0
07 03:35 N 9 16.09 NULL NULL 10 8 88% 9 76.1 0.0
07 03:15 N 9 16.09 NULL NULL 10 8 88% 9 76.1 0.0
07 02:55 N 11 16.09 NULL NULL 10 8 88% 9 76.07 0.0
07 02:35 N 11 16.09 NULL NULL 10 9 94% 9 76.07 0.0
07 02:15 N 11 16.09 NULL NULL 10 9 94% 9 76.1 0.0
07 01:55 N 9 16.09 NULL NULL 10 9 94% 9 76.1 0.0
07 01:35 N 7 16.09 NULL NULL 10 9 94% 9 76.12 0.0
07 01:15 N 7 16.09 NULL NULL 10 9 94% 9 76.1 0.0
07 00:55 N 7 16.09 NULL NULL 10 9 94% 9 76.12 0.0
07 00:35 N 7 16.09 NULL NULL 10 9 94% 9 76.1 0.0
07 00:15 N 7 16.09 NULL NULL 10 9 94% 9 76.12 0.0
06 23:55 Calm 16.09 NULL NULL 10 10 100% 76.12 0.0
06 23:35 N 6 16.09 NULL NULL 10 10 100% 76.15 0.0
06 23:15 N 9 16.09 NULL NULL 11 10 94% 76.15 0.0
06 22:35 Calm 16.09 NULL NULL 11 10 94% 76.12 0.0
06 22:10 Calm 16.09 NULL NULL 11 11 100% 76.12 0.0
06 21:55 Calm 16.09 NULL NULL 11 11 100% 76.1 0.0
06 21:35 NE 7 16.09 NULL NULL 11 11 100% 76.07 0.0
06 21:15 N 11 16.09 NULL NULL 11 11 100% 76.07 0.0
06 20:55 NE 7 16.09 NULL NULL 11 11 100% 76.1 0.0 0.05
06 20:35 Calm 14.48 NULL NULL 11 11 100% 76.12 0.0
06 20:15 N 7 8.05 Fog/Mist NULL 11 11 100% 76.15 0.0
06 19:55 N 7 12.87 NULL NULL 11 11 100% 76.15 0.0
06 19:35 NE 7 16.09 NULL NULL 11 11 100% 76.07 0.0
06 19:15 N 17 16.09 NULL NULL 12 11 94% 76.05 0.0
06 18:55 N 11 16.09 NULL NULL 12 11 94% 76 0.0
06 18:35 NE 9 16.09 NULL NULL 12 11 94% 75.95 0.0
06 18:15 NE 9 16.09 NULL NULL 12 11 94% 76.02 0.0
06 17:55 N 15 14.48 NULL NULL 12 11 94% 76.05 0.0 0.03
Date Time (cdt) Wind (kph) Vis. (km) Weather Sky Cond. Air Dwpt Max. Min. Relative Humidity Wind Chill (°C) Heat Index (°C) altimeter (cm) sea level (mb) 1 hr 3 hr 6 hr
6 hour
Temperature (ºC) Pressure Precipitation (cm)